Regional Weather Roundup
Issued by NWS Lake Charles, LA

Home | Current Version | Previous Version | Text Only | Print | Product List | Glossary On
Versions: 1 2 3 4 5 6 7 8 9 10 11 12 13 14 15 16 17 18 19 20 21 22 23 24 25 26 27 28 29 30 31 32 33 34 35 36 37 38 39 40 41 42 43 44 45 46 47 48 49 50
240
ASUS44 KLCH 221110
RWRLCH
REGIONAL WEATHER ROUNDUP
NATIONAL WEATHER SERVICE LAKE CHARLES LA
500 AM CST WED NOV 22 2017

Note: "fair" indicates few or no clouds below 12,000 feet with no
significant weather and/or obstructions to visibility.


ACROSS SOUTHEAST TEXAS

CITY           SKY/WX    TMP DP  RH WIND       PRES   REMARKS
BEAUMONT       CLOUDY    56  52  86 N12       30.12R
BEAUMONT CITY  CLOUDY    56  53  88 N9        30.14R
ORANGE         CLOUDY    56  54  93 N7        30.14R
JASPER         CLEAR     54  52  94 N3        30.17R
$$

ACROSS CENTRAL LOUISIANA

CITY           SKY/WX    TMP DP  RH WIND       PRES   REMARKS
LEESVILLE      MOCLDY    51  49  93 N6        30.14R
FULLERTON      PTSUNNY   51  49  92 CALM      30.12R
ALEXANDRIA INT CLEAR     47  47 100 NW5       30.13R
ESLER FIELD    CLEAR     50  48  93 N6        30.13R
DERIDDER       FAIR      51  49  95 CALM      30.16R
OAKDALE        PTSUNNY   50  48  93 N5        30.14R
OPELOUSAS      FAIR      50  49  98 N5        30.10S
$$

ACROSS SOUTHWEST AND SOUTH CENTRAL LOUISIANA

CITY           SKY/WX    TMP DP  RH WIND       PRES   REMARKS
SULPHUR        MOSUNNY   55  52  88 N10       30.12S
LAKE CHARLES   PTCLDY    55  52  89 N12       30.11R
CHENNAULT INT  CLOUDY    54  51  90 N8        30.11F
CAMERON PHI    PTSUNNY   55  54  94 N12       30.10R
DEQUINCY       PTSUNNY   51  50  95 N3        30.14R
JENNINGS       FAIR      52  51  95 N6        30.10F
LAFAYETTE      CLOUDY    54  51  90 N8        30.08S
NEW IBERIA     CLOUDY    55  50  83 N8        30.08S
ABBEVILLE      PTSUNNY   53  53  98 N6        30.08S
PATTERSON      MOCLDY    56  54  93 NE7       30.05S
SALT POINT       N/A      1  32 100 VRB6      30.03R WCI -10
$$

SELECTED SITES ACROSS THE REGION

CITY           SKY/WX    TMP DP  RH WIND       PRES   REMARKS
HOUSTON BUSH   PTCLDY    58  55  90 N10       30.14R
HOUSTON HOBBY  CLOUDY    60  55  83 N16       30.13R
GALVESTON      CLOUDY    60  55  83 N20G28    30.12R
COLLEGE STAT   CLEAR     54  46  74 N15       30.20R
CONROE         CLOUDY    58  55  90 N9        30.16R
HUNTSVILLE     PTCLDY    55  53  93 VRB5      30.19R
LUFKIN         MOCLDY    53  51  93 N6        30.18R
SHREVEPORT     CLEAR     51  40  65 N13       30.21R
MONROE         CLEAR     48  44  86 N15       30.18R
NATCHEZ MS     CLEAR     47  46  97 CALM      30.12R
BATON ROUGE    CLOUDY    53  48  83 N5        30.08R
N.O. INTL ARPT CLOUDY    60  50  69 N8        30.05R
SLIDELL        MOCLDY    54  48  80 N6        30.05R
$$

MARINE REPORTS

STATION/POSITION TIME  SKY/WX   TEMP    WIND        PRES    VSBY
                                AIR SEA DIR/SP/G
                 (UTC)          (F)     (DEG/KT/KT) (MB)    (MI)
BUOY 30 S HIGH I 0950            63 70   40/ 21/ 25 1017.7
WVE H/P(F/S)=  5/ 6

SEA RIM ST PARK  1100            57      10/ 11/ 15 1020.2R
PORT ARTHUR      1042            57 66   10/ 12/ 16 1019.8R
SABINE PASS N    1042            58 67   10/ 13/ 17 1021.0R
TEXAS POINT      NOT AVBL
CALCASIEU PASS   1042            57 65   40/ 11/ 14 1017.9R
LK CHARLES BEACH 1042            55 69              1019.2R
MARSH ISLAND     1000            60                   N/A
FRESH WATER LOCK 1042            56 64  340/  8/ 13 1017.8R
AMERADA PASS     1042            57 61   20/  4/  7 1017.0R
$$




USA.gov is the U.S. government's official web portal to all federal, state and local government web resources and services.